Weather History for KSLG - November, 2012

Change the Weather History Date:

Wednesday, November 14, 2012

  Actual Average Record
Temperature  
Mean Temperature 45 °F -  
Max Temperature 55 °F 56 °F 77 °F (1999)
Min Temperature 33 °F 38 °F 23 °F (2000)
Degree Days  
Heating Degree Days 20    
Moisture  
Dew Point 24 °F    
Average Humidity 42    
Maximum Humidity 65    
Minimum Humidity 31    
Precipitation  
Precipitation 0.00 in - - ()
Sea Level Pressure  
Sea Level Pressure 30.37 in    
Wind  
Wind Speed 3 mph (ESE)    
Max Wind Speed 7 mph    
Max Gust Speed -    
Visibility 10 miles    
Events      
Averages and records for this station are not official NWS values.
T = Trace of Precipitation, MM = Missing Value Source: NWS Daily Summary

Daily Weather History Graph

Daily Weather History Graph

Search for Another Location

Airport or City:

Trip Planner

Search our weather history database for the weather conditions in past years. The results will help you decide how hot, cold, wet, or windy it might be!

Date:

Astronomy

Nov. 14, 2012 Rise Set
Actual Time 6:54 AM CST 5:10 PM CST
Civil Twilight 6:26 AM CST 5:37 PM CST
Nautical Twilight 5:55 AM CST 6:08 PM CST
Astronomical Twilight 5:25 AM CST 6:39 PM CST
Moon 7:42 AM CST (11/14) 6:01 PM CST (11/14)
Length of Visible Light 11h 10m
Length of Day
10h 15m
New Moon, 1% of the Moon is Illuminated
Nov 14
New Moon
Nov 20
First Quarter
Nov 28
Full
Dec 6
Last Quarter
Dec 13
New

Hourly Weather History & Observations

Time (CST) Temp. Windchill Dew Point Humidity Pressure Visibility Wind Dir Wind Speed Gust Speed Precip Events Conditions
12:35 AM - - - N/A% 30.40 in 10.0 mi East 3.5 mph - N/A   Clear
12:55 AM - - - N/A% 30.40 in 10.0 mi East 3.5 mph - N/A   Clear
1:16 AM - - - N/A% 30.40 in 10.0 mi Calm Calm - N/A   Clear
1:35 AM - - - N/A% 30.40 in 10.0 mi East 4.6 mph - N/A   Clear
2:35 AM - - - N/A% 30.40 in 10.0 mi East 4.6 mph - N/A   Clear
2:55 AM - - - N/A% 30.40 in 10.0 mi East 4.6 mph - N/A   Clear
3:15 AM - - - N/A% 30.40 in 10.0 mi East 3.5 mph - N/A   Clear
3:35 AM - - - N/A% 30.40 in 10.0 mi East 5.8 mph - N/A   Clear
3:55 AM - - - N/A% 30.40 in 10.0 mi East 4.6 mph - N/A   Clear
4:15 AM - - - N/A% 30.40 in 10.0 mi East 3.5 mph - N/A   Clear
4:55 AM - - - N/A% 30.40 in 10.0 mi East 3.5 mph - N/A   Clear
5:15 AM - - - N/A% 30.40 in 10.0 mi East 3.5 mph - N/A   Clear
5:55 AM - - - N/A% 30.40 in 10.0 mi East 5.8 mph - N/A   Clear
6:15 AM - - - N/A% 30.41 in 10.0 mi East 4.6 mph - N/A   Clear
6:35 AM - - - N/A% 30.41 in 10.0 mi East 3.5 mph - N/A   Clear
6:55 AM - - - N/A% 30.42 in 10.0 mi East 3.5 mph - N/A   Clear
7:15 AM - - - N/A% 30.42 in 10.0 mi East 3.5 mph - N/A   Clear
7:35 AM - - - N/A% 30.43 in 10.0 mi East 3.5 mph - N/A   Clear
7:56 AM - - - N/A% 30.43 in 10.0 mi East 3.5 mph - N/A   Clear
8:35 AM - - - N/A% 30.44 in 10.0 mi Calm Calm - N/A   Clear
9:15 AM - - - N/A% 30.44 in 10.0 mi South 3.5 mph - N/A   Clear
9:35 AM - - - N/A% 30.44 in 10.0 mi Calm Calm - N/A   Clear
9:55 AM 48.2 °F - 26.6 °F 43% 30.44 in 10.0 mi SSW 6.9 mph - N/A   Clear
10:35 AM 51.8 °F - 28.4 °F 41% 30.43 in 10.0 mi WSW 4.6 mph - N/A   Clear
10:55 AM 51.8 °F - 26.6 °F 38% 30.43 in 10.0 mi WSW 4.6 mph - N/A   Clear
11:15 AM - - - N/A% 30.42 in 10.0 mi West 5.8 mph - N/A   Clear
11:35 AM 53.6 °F - 26.6 °F 35% 30.42 in 10.0 mi WSW 5.8 mph - N/A   Clear
11:55 AM 53.6 °F - 26.6 °F 35% 30.41 in 10.0 mi West 4.6 mph - N/A   Clear
12:15 PM - - - N/A% 30.39 in 10.0 mi WSW 3.5 mph - N/A   Clear
12:55 PM 55.4 °F - 24.8 °F 31% 30.38 in 10.0 mi Calm Calm - N/A   Clear
1:35 PM 55.4 °F - 24.8 °F 31% 30.36 in 10.0 mi WNW 4.6 mph - N/A   Clear
1:56 PM 55.4 °F - 24.8 °F 31% 30.36 in 10.0 mi SW 3.5 mph - N/A   Clear
2:35 PM 55.4 °F - 24.8 °F 31% 30.35 in 10.0 mi Calm Calm - N/A   Clear
2:56 PM 55.4 °F - 24.8 °F 31% 30.34 in 10.0 mi NE 3.5 mph - N/A   Clear
3:15 PM 55.4 °F - 24.8 °F 31% 30.34 in 10.0 mi Calm Calm - N/A   Clear
3:35 PM 55.4 °F - 24.8 °F 31% 30.34 in 10.0 mi SSW 4.6 mph - N/A   Clear
3:56 PM 55.4 °F - 24.8 °F 31% 30.34 in 10.0 mi Calm Calm - N/A   Clear
4:15 PM 55.4 °F - 24.8 °F 31% 30.33 in 10.0 mi Calm Calm - N/A   Clear
4:35 PM 53.6 °F - 24.8 °F 33% 30.33 in 10.0 mi South 3.5 mph - N/A   Clear
5:35 PM 50.0 °F - 21.2 °F 32% 30.32 in 10.0 mi SE 3.5 mph - N/A   Clear
5:55 PM 48.2 °F - 23.0 °F 37% 30.32 in 10.0 mi SE 4.6 mph - N/A   Clear
6:55 PM 46.4 °F 44.3 °F 23.0 °F 40% 30.31 in 10.0 mi ESE 4.6 mph - N/A   Clear
7:16 PM 44.6 °F - 23.0 °F 43% 30.31 in 10.0 mi Calm Calm - N/A   Clear
7:35 PM 44.6 °F 42.2 °F 23.0 °F 43% 30.31 in 10.0 mi East 4.6 mph - N/A   Clear
7:55 PM 42.8 °F 40.1 °F 23.0 °F 46% 30.31 in 10.0 mi ESE 4.6 mph - N/A   Clear
8:35 PM 39.2 °F 35.0 °F 24.8 °F 56% 30.31 in 10.0 mi SE 5.8 mph - N/A   Clear
8:55 PM 39.2 °F 35.9 °F 24.8 °F 56% 30.32 in 10.0 mi SSE 4.6 mph - N/A   Clear
9:15 PM 39.2 °F - 23.0 °F 52% 30.32 in 10.0 mi Calm Calm - N/A   Clear
9:35 PM 39.2 °F - 23.0 °F 52% 30.32 in 10.0 mi Calm Calm - N/A   Clear
9:55 PM 39.2 °F - 23.0 °F 52% 30.31 in 10.0 mi Calm Calm - N/A   Clear
10:15 PM 39.2 °F - 23.0 °F 52% 30.31 in 10.0 mi Calm Calm - N/A   Clear
10:36 PM 37.4 °F 34.9 °F 23.0 °F 56% 30.32 in 10.0 mi ESE 3.5 mph - N/A   Clear
11:15 PM 35.6 °F 32.8 °F 23.0 °F 60% 30.32 in 10.0 mi ESE 3.5 mph - N/A   Unknown
11:35 PM 35.6 °F 31.7 °F 23.0 °F 60% 30.31 in 10.0 mi ESE 4.6 mph - N/A   Clear
11:55 PM 33.8 °F 29.6 °F 23.0 °F 65% 30.32 in 10.0 mi ESE 4.6 mph - N/A   Clear